CAPE
0 0 0 0 0 0 0 0 0 0 0 0 0 0 0 0 0 0 0 0 0 0 0 0 0 0 0 0 0 0 0 0 0 0 0 0 0 0 0 0 0 1 0 0 0
0 0 0 0 0 0 0 0 0 0 0 0 0 0 0 0 0 0 0 0 0 0 0 0 0 0 0 0 0 0 0 0 0 0 0 0 0 0 0 0 0 0 0 0 0
0 0 0 0 0 0 0 0 0 0 0 0 0 0 0 0 0 0 0 0 0 0 0 0 0 0 0 0 0 0 0 0 0 0 0 0 0 0 0 0 0 0 0 0 0
0 0 0 0 0 0 0 0 0 0 0 0 0 0 0 0 0 0 0 0 0 0 0 0 0 0 0 0 0 0 0 0 0 0 0 0 0 0 0 0 0 0 0 0 0
0 0 0 0 0 0 0 0 0 0 0 0 0 0 0 0 0 0 0 0 0 0 0 0 0 0 0 0 0 0 0 0 0 0 0 0 0 0 0 0 0 0 0 0 0
0 0 0 0 0 0 0 0 0 0 0 0 0 0 0 0 0 0 0 0 0 0 0 0 0 0 0 0 0 0 0 0 0 0 0 0 0 0 0 0 0 0 0 0 0
0 0 0 0 0 0 0 0 0 0 0 0 0 0 0 0 0 0 0 0 0 0 0 0 0 0 0 0 0 0 0 0 0 0 0 0 0 0 0 0 0 0 0 0 0
0 0 0 0 0 0 0 0 0 0 0 0 0 0 0 0 0 0 0 0 0 0 0 0 0 0 0 0 0 0 0 0 0 0 0 0 0 0 0 0 0 0 0 0 0
0 0 0 0 0 0 0 0 0 0 0 0 0 0 0 0 0 0 0 0 0 0 0 0 0 0 0 0 0 0 0 0 0 0 0 0 0 0 0 0 0 0 0 0 0
0 0 0 0 0 0 0 0 0 0 0 0 0 0 0 0 0 0 0 0 0 0 0 0 0 0 0 0 0 0 0 0 0 0 0 0 0 0 0 0 0 0 0 0 0
0 0 0 0 0 0 0 0 0 0 0 0 0 0 0 0 0 0 0 0 0 0 0 0 0 0 0 0 0 0 0 0 0 0 0 0 0 0 0 0 0 0 0 0 0
0 0 0 0 0 0 0 0 0 0 0 0 0 0 0 0 0 0 0 0 0 0 0 0 0 0 0 0 0 0 0 0 0 0 0 0 0 0 0 0 0 0 0 0 0
0 0 0 0 0 0 0 0 0 0 0 0 0 0 0 0 0 0 0 0 0 0 0 0 0 0 0 0 0 0 0 0 0 0 0 0 0 0 0 0 0 0 0 0 0
0 0 0 0 0 0 0 0 0 0 0 0 0 0 0 0 0 0 0 0 0 0 0 0 0 0 0 0 0 0 0 0 0 0 0 0 0 0 0 0 0 0 0 0 0
0 0 0 0 0 0 0 0 0 0 0 0 0 0 0 0 0 0 0 0 0 0 0 0 0 0 0 0 0 0 0 0 0 0 0 0 0 0 0 0 0 0 0 0 0
0 0 0 0 0 0 0 0 0 0 0 0 0 0 0 0 0 0 0 0 0 0 0 0 0 0 0 0 0 0 0 0 0 0 0 0 0 0 0 0 0 0 0 0 0
0 0 0 0 0 0 0 0 0 0 0 0 0 0 0 0 0 0 0 0 0 0 0 0 0 0 0 0 0 0 0 0 0 0 0 0 0 0 0 0 0 0 0 0 0
0 0 0 0 0 0 0 0 0 0 0 0 0 0 0 0 0 0 0 0 0 0 0 0 0 0 0 0 0 0 0 0 0 0 0 0 0 0 0 0 0 0 0 0 0
0 0 0 0 0 0 0 0 0 0 0 0 0 0 0 0 0 0 0 0 0 0 0 0 0 0 0 0 0 0 0 0 0 0 0 0 0 0 0 0 0 0 0 0 0
0 0 0 0 0 0 0 0 0 0 0 0 0 0 0 0 0 0 0 0 0 0 0 0 0 0 0 0 0 0 0 0 0 0 0 0 0 0 0 0 0 0 0 0 0
0 0 0 0 0 0 0 0 0 0 0 0 0 0 0 0 0 0 0 0 0 0 0 0 0 0 0 0 0 0 0 0 0 0 0 0 0 0 0 0 0 0 0 0 0
0 0 0 0 0 0 0 0 0 0 0 0 0 0 0 0 0 0 0 0 0 0 0 0 0 0 0 0 0 0 0 0 0 0 0 0 0 0 0 0 0 0 0 0 0
0 0 0 0 0 0 0 0 0 0 0 0 0 0 0 0 0 0 0 0 0 0 0 0 0 0 0 0 0 0 0 0 0 0 0 0 0 0 0 0 0 0 0 0 0
0 0 0 0 0 0 0 0 0 0 0 0 0 0 0 0 0 0 0 0 0 0 0 0 0 0 0 0 0 0 0 0 0 0 0 0 0 0 0 0 0 0 0 0 0
0 0 0 0 0 0 0 0 0 0 0 0 0 0 0 0 0 0 0 0 0 0 0 0 0 0 0 0 0 0 0 0 0 0 0 0 0 0 0 0 0 0 0 0 0
0 0 0 0 0 0 0 0 0 0 0 0 0 0 0 0 0 0 0 0 0 0 0 0 0 0 0 0 0 0 0 0 0 0 0 0 0 0 0 0 0 0 0 0 0
0 0 0 0 0 0 0 0 0 0 0 0 0 0 0 0 0 0 0 0 0 0 0 0 0 0 0 0 0 0 0 0 0 0 0 0 0 0 0 0 0 0 0 0 0
CIN
-0 -0 -0 -0 -0 -0 -0 -0 -0 -0 -0 -0 -0 -0 -0 -0 -0 -0 -0 -0 -0 -0 -0 -0 -0 -0 -0 -0 -0 -0 -0 -0 -0 -0 -0 -0 -0 -0 -0 -0 -0 -0 -0 -0 -0
-0 -0 -0 -0 -0 -0 -0 -0 -0 -0 -0 -0 -0 -0 -0 -0 -0 -0 -0 -0 -0 -0 -0 -0 -0 -0 -0 -0 -0 -0 -0 -0 -0 -0 -0 -0 -0 -0 -0 -0 -0 -0 -0 -0 -0
-0 -0 -0 -0 -0 -0 -0 -0 -0 -0 -0 -0 -0 -0 -0 -0 -0 -0 -0 -0 -0 -0 -0 -0 -0 -0 -0 -0 -0 -0 -0 -0 -0 -0 -0 -0 -0 -0 -0 -0 -0 -0 -0 -0 -0
-0 -0 -0 -0 -0 -0 -0 -0 -0 -0 -0 -0 -0 -0 -0 -0 -0 -0 -0 -0 -0 -0 -0 -0 -0 -0 -0 -0 -0 -0 -0 -0 -0 -0 -0 -0 -0 -0 -0 -0 -0 -0 -0 -0 -0
-0 -0 -0 -0 -0 -0 -0 -0 -0 -0 -0 -0 -0 -0 -0 -0 -0 -0 -0 -0 -0 -0 -0 -0 -0 -0 -0 -0 -0 -0 -0 -0 -0 -0 -0 -0 -0 -0 -0 -0 -0 -0 -0 -0 -0
-0 -0 -0 -0 -0 -0 -0 -0 -0 -0 -0 -0 -0 -0 -0 -0 -0 -0 -0 -0 -0 -0 -0 -0 -0 -0 -0 -0 -0 -0 -0 -0 -0 -0 -0 -0 -0 -0 -0 -0 -0 -0 -0 -0 -0
-0 -0 -0 -0 -0 -0 -0 -0 -0 -0 -0 -0 -0 -0 -0 -0 -0 -0 -0 -0 -0 -0 -0 -0 -0 -0 -0 -0 -0 -0 -0 -0 -0 -0 -0 -0 -0 -0 -0 -0 -0 -0 -0 -0 -0
-0 -0 -0 -0 -0 -0 -0 -0 -0 -0 -0 -0 -0 -0 -0 -0 -0 -0 -0 -0 -0 -0 -0 -0 -0 -0 -0 -0 -0 -0 -0 -0 -0 -0 -0 -0 -0 -0 -0 -0 -0 -0 -0 -0 -0
-0 -0 -0 -0 -0 -0 -0 -0 -0 -0 -0 -0 -0 -0 -0 -0 -0 -0 -0 -0 -0 -0 -0 -0 -0 -0 -0 -0 -0 -0 -0 -0 -0 -0 -0 -0 -0 -0 -0 -0 -0 -0 -0 -0 -0
-0 -0 -0 -0 -0 -0 -0 -0 -0 -0 -0 -0 -0 -0 -0 -0 -0 -0 -0 -0 -0 -0 -0 -0 -0 -0 -0 -0 -0 -0 -0 -0 -0 -0 -0 -0 -0 -0 -0 -0 -0 -0 -0 -0 -0
-0 -0 -0 -0 -0 -0 -0 -0 -0 -0 -0 -0 -0 -0 -0 -0 -0 -0 -0 -0 -0 -0 -0 -0 -0 -0 -0 -0 -0 -0 -0 -0 -0 -0 -0 -0 -0 -0 -0 -0 -0 -0 -0 -0 -0
-0 -0 -0 -0 -0 -0 -0 -0 -0 -0 -0 -0 -0 -0 -0 -0 -0 -0 -0 -0 -0 -0 -0 -0 -0 -0 -0 -0 -0 -0 -0 -0 -0 -0 -0 -0 -0 -0 -0 -0 -0 -0 -0 -0 -0
-0 -0 -0 -0 -0 -0 -0 -0 -0 -0 -0 -0 -0 -0 -0 -0 -0 -0 -0 -0 -0 -0 -0 -0 -0 -0 -0 -0 -0 -0 -0 -0 -0 -0 -0 -0 -0 -0 -0 -0 -0 -0 -0 -0 -0
-0 -0 -0 -0 -0 -0 -0 -0 -0 -0 -0 -0 -0 -0 -0 -0 -0 -0 -0 -0 -0 -0 -0 -0 -0 -0 -0 -0 -0 -0 -0 -0 -0 -0 -0 -0 -0 -0 -0 -0 -0 -0 -0 -0 -0
-0 -0 -0 -0 -0 -0 -0 -0 -0 -0 -0 -0 -0 -0 -0 -0 -0 -0 -0 -0 -0 -0 -0 -0 -0 -0 -0 -0 -0 -0 -0 -0 -0 -0 -0 -0 -0 -0 -0 -0 -0 -0 -0 -0 -0
-0 -0 -0 -0 -0 -0 -0 -0 -0 -0 -0 -0 -0 -0 -0 -0 -0 -0 -0 -0 -0 -0 -0 -0 -0 -0 -0 -0 -0 -0 -0 -0 -0 -0 -0 -0 -0 -0 -0 -0 -0 -0 -0 -0 -0
-0 -0 -0 -0 -0 -0 -0 -0 -0 -0 -0 -0 -0 -0 -0 -0 -0 -0 -0 -0 -0 -0 -0 -0 -0 -0 -0 -0 -0 -0 -0 -0 -0 -0 -0 -0 -0 -0 -0 -0 -0 -0 -0 -0 -0
-0 -0 -0 -0 -0 -0 -0 -0 -0 -0 -0 -0 -0 -0 -0 -0 -0 -0 -0 -0 -0 -0 -0 -0 -0 -0 -0 -0 -0 -0 -0 -0 -0 -0 -0 -0 -0 -0 -0 -0 -0 -0 -0 -0 -0
-0 -0 -0 -0 -0 -0 -0 -0 -0 -0 -0 -0 -0 -0 -0 -0 -0 -0 -0 -0 -0 -0 -0 -0 -0 -0 -0 -0 -0 -0 -0 -0 -0 -0 -0 -0 -0 -0 -0 -0 -0 -0 -0 -0 -0
-0 -0 -0 -0 -0 -0 -0 -0 -0 -0 -0 -0 -0 -0 -0 -0 -0 -0 -0 -0 -0 -0 -0 -0 -0 -0 -0 -0 -0 -0 -0 -0 -0 -0 -0 -0 -0 -0 -0 -0 -0 -0 -0 -0 -0
-0 -0 -0 -0 -0 -0 -0 -0 -0 -0 -0 -0 -0 -0 -0 -0 -0 -0 -0 -0 -0 -0 -0 -0 -0 -0 -0 -0 -0 -0 -0 -0 -0 -0 -0 -0 -0 -0 -0 -0 -0 -0 -0 -0 -0
-0 -0 -0 -0 -0 -0 -0 -0 -0 -0 -0 -0 -0 -0 -0 -0 -0 -0 -0 -0 -0 -0 -0 -0 -0 -0 -0 -0 -0 -0 -0 -0 -0 -0 -0 -0 -0 -0 -0 -0 -0 -0 -0 -0 -0
-0 -0 -0 -0 -0 -0 -0 -0 -0 -0 -0 -0 -0 -0 -0 -0 -0 -0 -0 -0 -0 -0 -0 -0 -0 -0 -0 -0 -0 -0 -0 -0 -0 -0 -0 -0 -0 -0 -0 -0 -0 -0 -0 -0 -0
-0 -0 -0 -0 -0 -0 -0 -0 -0 -0 -0 -0 -0 -0 -0 -0 -0 -0 -0 -0 -0 -0 -0 -0 -0 -0 -0 -0 -0 -0 -0 -0 -0 -0 -0 -0 -0 -0 -0 -0 -0 -0 -0 -0 -0
-0 -0 -0 -0 -0 -0 -0 -0 -0 -0 -0 -0 -0 -0 -0 -0 -0 -0 -0 -0 -0 -0 -0 -0 -0 -0 -0 -0 -0 -0 -0 -0 -0 -0 -0 -0 -0 -0 -0 -0 -0 -0 -0 -0 -0
-0 -0 -0 -0 -0 -0 -0 -0 -0 -0 -0 -0 -0 -0 -0 -0 -0 -0 -0 -0 -0 -0 -0 -0 -0 -0 -0 -0 -0 -0 -0 -0 -0 -0 -0 -0 -0 -0 -0 -0 -0 -0 -0 -0 -0
-0 -0 -0 -0 -0 -0 -0 -0 -0 -0 -0 -0 -0 -0 -0 -0 -0 -0 -0 -0 -0 -0 -0 -0 -0 -0 -0 -0 -0 -0 -0 -0 -0 -0 -0 -0 -0 -0 -0 -0 -0 -0 -0 -0 -0
Wind_Speed
18 18 17 17 17 17 17 17 18 20 19 19 15 4 3 6 13 1 15 7 8 10 14 15 6 5 5 3 4 1 4 8 2 4 6 11 18 20 22 23 25 24 24 23 6
18 18 17 17 17 16 16 16 17 19 9 8 7 5 6 12 22 5 11 13 9 10 14 2 2 5 2 1 3 1 1 4 5 16 15 12 16 16 17 19 21 22 22 20 16
18 18 18 17 17 16 16 16 16 16 12 8 10 6 12 17 19 9 12 15 10 14 10 8 5 6 10 4 2 1 10 16 14 18 19 19 19 17 19 19 19 20 19 17 17
19 18 18 18 18 16 17 17 17 16 13 9 11 8 17 17 20 7 13 13 11 19 14 11 8 9 6 8 2 26 15 16 17 15 14 16 17 20 20 19 19 19 19 19 20
19 19 18 18 18 18 16 17 17 17 14 11 12 7 18 23 16 5 10 9 7 4 3 15 11 8 13 27 27 26 19 19 19 19 20 22 20 20 21 21 20 19 19 20 21
21 19 19 19 19 19 16 18 18 17 15 13 12 9 20 25 9 5 5 5 8 18 25 17 16 23 9 13 3 24 26 23 19 21 19 19 19 19 21 20 20 20 20 20 21
23 21 19 19 20 20 17 18 18 18 16 14 13 10 13 15 10 6 2 3 7 4 20 5 13 15 15 15 15 22 27 22 15 20 22 22 19 22 22 21 21 21 20 21 21
24 22 21 20 21 21 19 18 19 19 17 15 13 11 8 14 12 5 6 13 8 10 15 12 14 12 13 23 8 12 12 18 23 17 16 18 18 20 20 20 21 21 20 20 21
24 23 23 21 21 21 20 18 19 18 18 16 13 10 7 14 13 10 11 22 8 5 5 2 4 16 29 27 20 16 20 21 22 18 19 17 19 19 18 18 19 19 19 19 19
24 23 23 22 21 21 21 16 17 16 17 14 11 7 12 13 15 14 13 13 20 22 19 15 17 25 29 18 19 24 24 23 20 18 17 18 17 19 16 16 16 16 16 17 17
23 24 22 23 21 20 18 15 17 14 12 12 9 7 13 15 13 10 13 16 16 13 20 15 21 30 19 14 17 17 17 14 14 15 17 16 18 17 14 13 13 13 13 14 16
24 23 23 23 21 20 17 16 17 12 11 12 10 9 12 14 10 11 12 13 13 7 17 13 9 17 17 10 13 15 17 15 16 14 16 16 14 13 11 11 10 11 11 12 14
22 24 22 23 23 19 17 16 12 11 15 15 14 12 14 12 11 13 13 11 2 3 6 11 19 16 18 9 16 11 18 18 16 17 18 16 11 8 7 7 7 7 8 10 11
18 23 21 21 21 19 17 17 12 14 20 20 17 16 15 13 12 13 12 12 8 4 4 7 13 8 12 12 10 14 16 16 16 15 16 15 15 8 5 4 4 5 6 7 9
12 22 22 20 17 18 18 17 14 16 23 20 18 17 15 13 13 13 11 11 8 8 12 12 8 8 8 10 12 13 13 14 15 16 14 12 17 14 9 2 3 3 3 5 7
14 21 20 18 18 17 15 17 18 20 27 21 18 19 17 16 15 14 12 10 9 9 8 8 10 11 10 12 12 13 13 15 16 17 17 16 14 15 13 7 3 1 2 3 5
16 18 21 20 18 16 13 17 21 29 20 21 21 18 18 19 17 17 16 13 13 10 12 11 13 11 10 10 10 12 11 18 18 18 17 18 15 14 14 13 8 2 1 2 4
15 15 20 19 20 13 18 22 31 25 21 19 19 17 20 20 20 19 17 17 15 13 9 8 9 10 12 11 9 10 12 15 19 18 19 17 17 18 16 15 10 6 2 3 3
12 16 18 19 20 15 21 27 30 23 19 21 17 22 22 20 19 19 21 20 18 15 15 11 13 14 12 10 10 9 11 13 17 19 22 17 17 15 16 18 15 10 5 3 3
15 15 18 20 18 17 23 27 24 25 19 19 24 24 26 23 22 21 20 21 17 16 14 12 13 14 11 11 14 11 8 15 16 20 23 18 19 18 18 17 14 11 5 3 4
16 18 18 21 18 21 31 29 25 25 20 22 25 27 24 23 23 23 22 20 18 15 15 13 15 13 12 11 8 10 12 15 15 16 24 27 22 16 19 14 13 10 6 4 4
19 21 16 18 22 25 29 27 24 27 25 23 24 25 25 21 23 24 24 22 16 12 15 16 14 16 16 15 13 12 12 10 17 19 20 24 26 19 16 14 11 10 8 8 11
22 18 18 16 29 27 26 27 26 26 27 27 27 27 22 22 25 23 21 21 16 15 13 13 18 20 19 18 16 13 12 13 15 19 21 24 25 20 19 16 12 11 12 13 15
21 23 22 24 25 25 26 29 31 27 26 25 26 25 23 23 22 20 21 21 20 18 13 13 18 21 22 18 13 14 13 11 15 21 22 20 23 20 18 18 15 14 14 15 16
25 25 21 29 27 24 22 24 32 30 26 25 27 30 25 27 22 22 20 19 20 17 18 18 21 20 20 17 15 16 15 11 14 18 21 23 21 20 14 16 15 14 14 15 17
28 20 19 20 20 24 25 28 25 27 28 30 30 28 27 26 25 23 19 20 21 19 19 18 21 18 21 19 19 21 18 17 15 18 19 22 24 17 16 14 14 15 15 17 19
22 20 16 19 24 27 27 26 27 26 27 27 29 26 29 26 21 17 16 14 14 16 18 18 17 20 25 21 24 29 21 16 18 18 18 22 22 15 15 14 14 15 16 18 20
Wind_Direction
310 311 319 325 318 321 317 333 355 5 66 73 89 220 182 126 104 119 349 249 226 245 177 165 184 174 40 75 32 337 101 83 129 252 44 46 57 42 59 52 44 64 68 80 162
305 306 307 317 310 319 309 316 329 355 245 143 141 203 154 113 84 34 302 299 272 224 179 218 354 14 15 263 276 316 116 234 41 78 72 47 50 50 49 47 44 51 58 54 12
299 300 299 304 298 311 305 305 317 307 273 222 274 217 115 99 106 130 305 303 274 190 197 184 170 33 41 30 272 297 62 76 67 73 70 66 57 54 53 37 48 58 51 32 19
290 294 294 294 288 293 306 291 306 293 270 242 280 237 101 119 94 160 296 293 266 187 205 210 208 169 123 56 123 72 64 69 72 67 57 49 52 48 46 52 52 47 44 39 33
284 287 287 285 282 281 301 290 293 294 269 253 285 242 126 99 122 212 284 273 233 293 25 65 65 175 52 70 66 69 72 67 70 66 62 66 51 54 50 56 54 49 42 37 32
277 281 283 279 279 273 287 289 281 287 268 251 290 199 131 59 160 230 257 253 217 182 162 189 88 82 83 177 217 82 81 77 67 66 59 53 52 76 72 60 53 48 42 36 31
271 276 278 273 271 264 276 279 278 281 266 248 290 240 2 149 161 176 258 314 197 158 75 87 149 200 176 71 78 81 82 72 113 71 75 107 35 66 94 84 68 62 54 46 38
268 270 272 270 264 262 269 276 277 275 267 245 280 243 281 184 172 177 175 36 45 58 67 60 62 63 188 89 161 192 203 69 149 178 180 146 77 103 96 84 71 68 56 47 38
265 267 266 266 263 260 261 274 278 274 266 243 265 256 297 211 189 180 166 145 55 93 126 151 20 65 95 94 170 192 117 87 134 151 122 122 94 122 105 90 77 73 64 52 44
265 263 264 263 262 258 258 270 281 285 278 260 269 277 243 226 200 192 185 181 166 166 172 185 177 157 147 181 172 144 106 129 111 130 78 72 91 113 107 95 83 77 70 56 43
261 260 262 261 259 258 256 262 261 285 297 277 275 273 236 227 224 227 204 191 190 199 181 193 158 133 182 202 187 69 72 49 29 181 70 101 102 109 101 93 87 80 66 57 48
256 259 258 258 256 255 257 256 258 276 275 275 267 265 251 244 246 248 234 224 220 234 196 205 201 196 190 224 38 54 64 52 48 150 92 86 98 103 105 102 94 85 72 61 49
257 252 257 254 251 252 253 254 277 280 270 268 264 260 257 254 253 248 242 228 260 27 254 110 192 223 159 22 61 358 83 91 81 53 31 60 61 105 115 100 96 92 75 63 54
260 252 254 254 251 248 250 254 275 283 253 259 263 259 257 247 255 253 249 242 257 44 317 313 242 8 56 45 27 32 76 53 61 39 30 41 27 57 122 126 114 105 84 65 61
257 250 249 246 255 245 251 255 271 276 256 259 257 257 255 252 246 257 272 264 263 268 277 277 323 16 9 335 4 39 60 44 37 25 38 42 14 28 45 103 159 130 99 62 63
246 248 247 252 253 249 260 252 255 257 251 254 258 249 245 251 252 253 260 273 265 285 330 315 320 327 355 352 21 57 27 5 6 8 5 15 23 19 26 35 39 89 111 64 60
239 245 245 250 246 248 258 251 247 246 255 254 251 249 244 247 249 251 251 254 265 273 285 295 300 327 350 8 3 3 16 341 350 356 2 9 11 7 13 17 32 61 121 88 66
236 241 250 254 250 245 244 243 247 255 249 255 250 247 246 246 250 253 251 253 266 280 286 297 312 312 321 336 351 356 348 343 338 346 347 3 356 4 16 11 11 18 111 87 64
221 245 250 252 248 242 236 243 249 250 249 244 246 246 248 248 250 252 254 255 264 274 284 288 301 307 322 337 343 352 342 353 341 343 335 350 355 357 2 6 14 27 72 102 62
223 243 247 252 250 236 243 250 256 247 247 245 249 251 247 244 248 249 251 260 264 273 287 294 302 303 319 328 330 337 14 339 341 338 334 349 346 348 3 7 16 24 53 71 40
230 239 247 251 249 239 243 248 257 250 248 250 249 248 254 251 250 249 254 265 263 269 282 289 298 307 313 312 321 332 330 336 343 342 329 331 341 359 356 4 10 19 43 55 26
229 241 247 254 236 245 239 246 260 249 251 252 251 252 251 255 252 252 253 264 265 267 271 281 300 297 302 315 321 323 323 327 323 329 331 329 331 349 355 357 4 11 18 7 355
225 247 252 249 239 236 242 245 256 251 247 247 249 251 257 253 255 256 257 264 264 267 271 274 287 290 301 309 313 314 315 320 327 330 323 325 329 347 352 355 357 357 357 352 350
229 239 247 245 253 238 237 243 249 258 250 249 247 250 250 255 263 262 258 263 265 269 277 282 285 288 292 309 326 317 315 312 315 318 320 319 326 334 344 351 355 357 0 360 359
235 243 242 239 244 241 237 241 240 248 254 247 246 245 248 251 259 263 265 264 267 267 273 279 282 289 297 309 313 315 319 311 302 313 317 325 325 331 335 343 351 359 359 357 353
231 242 245 248 240 240 234 238 228 244 248 245 245 246 247 254 258 261 261 265 266 265 269 279 284 292 293 304 307 305 309 309 305 310 307 316 318 330 338 344 346 348 350 348 349
239 242 239 249 245 242 236 235 240 246 252 250 242 244 247 257 264 275 272 272 276 270 270 276 282 287 291 302 304 301 302 296 309 314 313 311 320 328 332 336 340 345 347 348 348